User: anonymous   Login
Location: *
(40.4270°N, 9.4940°E)
Time: 21:03:50
(UTC+01:00)
Language:

Okean 2 - Orbit

View from above orbital plane
View from above orbital plane
View from above satellite
View from above satellite

Ground track
Ground track

The orbit data is extracted from the following two-line orbital elements,

1 20510U 90018A   15065.00911299  .00002568  00000-0  21932-3 0  9995
2 20510 082.5132 251.7061 0011596 278.8432 246.8410 14.97252881356533
Epoch (UTC): 06 March 2015 00:13:07
Eccentricity: 0.0011596
inclination: 82.5132°
perigee height: 567 km
apogee height: 583 km
right ascension of ascending node: 251.7061°
argument of perigee: 278.8432°
revolutions per day: 14.97252881
mean anomaly at epoch: 246.8410°
orbit number at epoch: 35653

The dashed part of the orbit path shows where the satellite is in the earth's shadow,  

DLR